GW0901 Weather Reports


Display with metric or nautical units.
time (UTC)temp
F
wind
direction
speed
MPH
gust
MPH
rain 1hr
in
rain 24hr
in
rain mn
in
humidity
%
barometer
mb
20260505124530 52 347 1.0 3.0 0.00 0.00 0.00 77 1008.8
20260505121532 59 187 0.0 1.0 0.00 0.00 0.00 64 1008.6
20260505114533 60 291 2.0 7.0 0.00 0.00 0.00 62 1008.4
20260505113032 61 268 2.0 8.0 0.00 0.00 0.00 61 1008.3
20260505111531 61 271 3.0 9.0 0.00 0.00 0.00 61 1008.2
20260505101531 62 261 3.0 11.0 0.00 0.00 0.00 60 1007.8
20260505100147 62 241 1.0 4.0 0.00 0.00 0.00 58 1007.8
20260505094530 63 244 2.0 9.0 0.00 0.00 0.00 58 1007.7
20260505091529 64 274 3.0 9.0 0.00 0.00 0.00 57 1007.5
20260505084535 64 264 3.0 9.0 0.00 0.00 0.00 57 1007.4
20260505083116 64 273 3.0 10.0 0.00 0.00 0.00 57 1007.4
20260505081530 64 261 3.0 8.0 0.00 0.00 0.00 57 1007.4
20260505080034 64 261 3.0 9.0 0.00 0.00 0.00 59 1007.4
20260505073031 64 243 2.0 9.0 0.00 0.00 0.00 59 1007.3
20260505071530 62 279 2.0 6.0 0.00 0.00 0.00 62 1007.2
20260505070030 62 275 0.0 5.0 0.00 0.00 0.00 61 1007.1
20260505064528 65 331 1.0 4.0 0.00 0.00 0.00 55 1007.0
20260505061539 67 236 3.0 8.0 0.00 0.00 0.00 52 1006.8
20260505060029 67 269 5.0 12.0 0.00 0.00 0.00 51 1006.6
20260505051531 68 261 5.0 15.0 0.00 0.00 0.00 48 1006.3
20260505041530 69 269 7.0 15.0 0.00 0.00 0.00 43 1005.8
20260505040044 70 266 7.0 18.0 0.00 0.00 0.00 43 1005.5
20260505034528 70 261 7.0 17.0 0.00 0.00 0.00 43 1005.4
20260505033032 70 263 7.0 17.0 0.00 0.00 0.00 42 1005.3
20260505031529 71 266 7.0 15.0 0.00 0.00 0.00 41 1005.2
20260505030032 72 266 8.0 16.0 0.00 0.00 0.00 41 1004.9
20260505024531 73 265 7.0 15.0 0.00 0.00 0.00 39 1004.9
20260505023044 74 271 6.0 13.0 0.00 0.00 0.00 38 1004.8
20260505021531 75 271 7.0 17.0 0.00 0.00 0.00 36 1004.8
20260505020033 76 271 6.0 14.0 0.00 0.00 0.00 34 1004.8
20260505014534 77 263 8.0 15.0 0.00 0.00 0.00 32 1004.8
20260505011608 80 265 5.0 12.0 0.00 0.00 0.00 30 1004.7
20260505010028 80 260 6.0 12.0 0.00 0.00 0.00 29 1004.7
20260505004530 81 256 6.0 19.0 0.00 0.00 0.00 28 1004.8
20260505003107 83 258 6.0 15.0 0.00 0.00 0.00 27 1004.8
20260505000029 84 289 4.0 12.0 0.00 0.00 0.00 30 1004.8
20260504233050 84 305 5.0 11.0 0.00 0.00 0.00 30 1004.8
20260504231530 84 317 6.0 13.0 0.00 0.00 0.00 29 1004.9
20260504230036 85 317 4.0 14.0 0.00 0.00 0.00 29 1005.0
20260504224530 85 325 4.0 11.0 0.00 0.00 0.00 28 1005.2
20260504223031 86 314 4.0 9.0 0.00 0.00 0.00 27 1005.4
20260504221537 86 303 3.0 9.0 0.00 0.00 0.00 27 1005.5
20260504214530 85 295 4.0 9.0 0.00 0.00 0.00 27 1005.8
20260504211533 85 334 4.0 8.0 0.00 0.00 0.00 27 1006.1